Regional Weather Roundup
Issued by NWS

Home | Current Version | Previous Version | Text Only | Print | Product List | Glossary On
Versions: 1 2 3 4 5 6 7 8 9 10 11 12 13 14 15 16 17 18 19 20 21 22 23 24 25 26 27 28 29 30 31 32 33 34 35 36 37 38 39 40 41 42 43 44 45 46 47 48 49 50
000
ASUS44 KJAN 140510
RWRMS

MISSISSIPPI HOURLY WEATHER ROUNDUP
NATIONAL WEATHER SERVICE JACKSON MS
1200 AM CDT MON JUL 14 2014

NOTE: "FAIR: INDICATES FEW OR NO CLOUDS BELOW 12,000 FEET WITH NO
SIGNIFICANT WEATHER AND/OR OBSTRUCTIONS TO VISIBILITY.

MSZ001>002-007>008-010>013-018>021-025>028-034>036-140600-
NORTHWEST MISSISSIPPI

CITY           SKY/WX    TMP DP  RH WIND       PRES   REMARKS
CLARKSDALE     FAIR      77  75  94 CALM      30.00F
CLEVELAND      FAIR      78  76  94 S5        30.00S
GREENWOOD      CLEAR     77  75  93 CALM      30.01F FOG
GREENVILLE     CLEAR     77  73  87 S5        30.00S
GRENADA        FAIR      73  73 100 CALM      30.01S
OLIVE BRANCH   CLEAR     77  77 100 S7        29.99F
OXFORD         FAIR      75  73  94 CALM      30.03F
TUNICA         CLEAR     77  73  88 S5        29.99F
$$

MSZ003>006-009-014>017-022>024-029>033-037>039-140600-
NORTHEAST MISSISSIPPI

CITY           SKY/WX    TMP DP  RH WIND       PRES   REMARKS
BELMONT        FAIR      74  72  93 CALM      30.04F
COLUMBUS AFB   CLEAR     77  75  93 CALM      30.03S
CORINTH        FAIR      75  72  88 CALM      30.01
GOLDN TRIANGLE CLEAR     82  73  74 S3        30.03S
STARKVILLE     FAIR      75  73  94 CALM      30.03S
TUPELO         CLEAR     77  73  87 S3        30.02F
$$

MSZ040-058-140600-
CENTRAL MISSISSIPPI

CITY           SKY/WX    TMP DP  RH WIND       PRES   REMARKS
JACKSON INTL   CLEAR     79  76  90 CALM      30.04S
JACKSON HAWKNS CLEAR     79  72  79 S3        30.04S
MERIDIAN KEY   CLEAR     76  73  91 S5        30.05S
MERIDIAN NAS   CLEAR     78  73  84 S3        30.04F
RAYMOND        FAIR      77  72  83 CALM      30.04R
VICKSBURG      CLEAR     75  73  93 CALM      30.03R
$$

MSZ059>079-140600-
SOUTH MISSISSIPPI

CITY           SKY/WX    TMP DP  RH WIND       PRES   REMARKS
BROOKHAVEN     FAIR      73  72  94 CALM      30.07F
COLUMBIA       FAIR      73  72  94 CALM      30.05S FOG
HATTIESBURG    CLEAR     75  73  93 SE5       30.06F
MCCOMB         CLEAR     73  70  90 CALM      30.05F
NATCHEZ        CLEAR     75  72  88 S3        30.05S
PINE BELT      CLEAR     73  70  88 CALM      30.08S
$$

MSZ080>082-140600-
COASTAL MISSISSIPPI

CITY           SKY/WX    TMP DP  RH WIND       PRES   REMARKS
BILOXI         CLEAR     82  73  72 S6        30.05F
PASCAGOULA     CLEAR     74  73  97 CALM      30.06F
GULFPORT       CLEAR     83  73  72 S3        30.04F
$$


USA.gov is the U.S. government's official web portal to all federal, state and local government web resources and services.